Regional Weather Roundup
Issued by NWS

Home | Current Version | Previous Version | Text Only | Print | Product List | Glossary Off
Versions: 1 2 3 4 5 6 7 8 9 10 11 12 13 14 15 16 17 18 19 20 21 22 23 24 25 26 27 28 29 30 31 32 33 34 35 36 37 38 39 40 41 42 43 44 45 46 47 48 49 50

000
ASUS45 KBOU 242007
RWRCO

WEATHER ROUNDUP FOR COLORADO
NATIONAL WEATHER SERVICE DENVER/BOULDER CO
200 PM MDT TUE MAY 24 2016

NOTE: "FAIR" INDICATES FEW OR NO CLOUDS BELOW 12000 FEET WITH NO
SIGNIFICANT WEATHER AND/OR OBSTRUCTIONS TO VISIBILITY.

COZ001>005-013-030-031-242100-
...NORTHWEST COLORADO...

CITY           SKY/WX    TMP DP  RH WIND       PRES   REMARKS
CRAIG          FAIR      71  25  17 SW22G30   29.88F
HAYDEN         FAIR      66  23  19 W12       29.88F
MEEKER         FAIR      70  19  14 SW15G26   29.89F
MOUNT WERNER   NOT AVBL
STEAMBOAT SPGS FAIR      64  23  21 W8        29.91S
WALDEN         PTSUNNY   59  16  18 SW8       29.98F
$$

COZ006>008-011-242100-
...WEST CENTRAL VALLEYS...

CITY           SKY/WX    TMP DP  RH WIND       PRES   REMARKS
GRAND JUNCTION FAIR      77  21  12 SW23G32   29.83F
MONTROSE       FAIR      76  20  12 SW16G32   29.88F
EAGLE          MOSUNNY   72  18  13 SW18G29   29.91F
RIFLE          FAIR      74  17  11 SW20G26   29.85F
DELTA          NOT AVBL
NUCLA          PTSUNNY   68  19  15 S23G30    29.96F HAZE
$$

COZ017>023-064>068-242100-
...SOUTHWEST COLORADO...

CITY           SKY/WX    TMP DP  RH WIND       PRES   REMARKS
DURANGO        FAIR      69  19  15 S21G29    30.03S
CORTEZ         FAIR      74  21  13 S22G32    29.97F
PAGOSA SPRINGS FAIR      65  13  13 SW17G25   30.09S
TELLURIDE      PTSUNNY   59  17  19 S12G21    30.10S
WOLF CREEK PAS FAIR      37  19  48 S26G44    30.29S
$$

COZ009-010-012-014-032>034-037-058>063-242100-
...CENTRAL COLORADO...

CITY           SKY/WX    TMP DP  RH WIND       PRES   REMARKS
ASPEN          FAIR      67  19  16 S14G21    29.94F
BUENA VISTA    FAIR      67  13  12 SE22G31   29.97S
COPPER MTN     NOT AVBL
BERTHOUD PASS  PTSUNNY   36  28  75 MISG      30.22F
COTTONWOOD PAS FAIR      61   3  10 S14G23    30.09S
GUNNISON       FAIR      66  18  15 W12       29.99F
KREMMLING      FAIR      70  12  11 W22G28    29.92F
LEADVILLE      FAIR      56   7  14 SW15G28   30.06F
MONARCH PASS   PTSUNNY   45  12  26 SW29G40   30.31F
SALIDA         FAIR      71  14  11 S17G48    30.04F
SUNLIGHT       FAIR      52  23  32 CALM      30.15S
WILKERSON PASS FAIR      55  19  24 SW8G17    30.19F
$$

COZ069>075-242100-
...SAN LUIS VALLEY/SANGRE DE CRISTO MOUNTAINS...

CITY           SKY/WX    TMP DP  RH WIND       PRES   REMARKS
ALAMOSA          N/A     71  19  14 SW21G35   30.03F
LA VETA PASS   FAIR      61  23  23 S16G26    30.19S
SAGUACHE       FAIR      68  19  15 SW12G26   30.02F
$$

COZ035-036-038>040-242100-
...NORTHERN COLORADO FRONT RANGE...

CITY           SKY/WX    TMP DP  RH WIND       PRES   REMARKS
DENVER INTL AP PTSUNNY   69  46  43 E21       29.87F
DMNS CITY PARK   N/A     68  47  45 SE18G32   29.83F
AURORA         PTSUNNY   68  47  47 E18G24    29.88F
FRONT RANGE AP PTSUNNY   72  45  37 MISG      29.89F
ERIE MUNI ARPT RAIN      67  33  29 S5G23     29.87F
BOULDER MUN AP PTSUNNY   70  46  43 NW8       29.87F
CENTENNIAL     PTSUNNY   69  46  43 E21G30    29.86F THUNDER
BROOMFIELD     TSTM      66  48  52 N6        29.89F
FORT COLLINS   FAIR      68  50  52 E6        29.88F
LONGMONT       PTSUNNY   71  48  44 NW13G21   29.89F
$$

COZ041-046-047-076>085-087-088-242100-
...PIKES PEAK/PALMER DIVIDE AND SOUTHERN FOOTHILLS...

CITY           SKY/WX    TMP DP  RH WIND       PRES   REMARKS
COLO. SPRINGS  FAIR      72  39  30 S21       29.96F
A. F. ACADEMY  FAIR      68  39  34 S15G22    29.95F
SCHRIEVER AFB  NOT AVBL
ELLICOTT       FAIR     N/A N/A N/A S13G23    29.94F
FALCON         FAIR      69  38  32 SE17G26   29.99F
FORT CARSON    FAIR      71  44  36 VRB7G20   29.93F
LIMON          PTSUNNY   68  52  56 SE18G24   29.94F
MONUMENT HILL  FAIR      64  43  45 S22G29    29.99F
TRINIDAD       FAIR      80  28  15 E15       29.90F
$$

COZ042>045-048>051-090-091-242100-
...NORTHEAST COLORADO...

CITY           SKY/WX    TMP DP  RH WIND       PRES   REMARKS
GREELEY ARPT   FAIR      73  48  40 SE21G26   29.87F
AKRON          FAIR      72  55  55 SE18G29   29.91F
BURLINGTON     FAIR      74  56  53 SE21      29.91F
WRAY           NOT AVBL
STERLING       PTSUNNY   75  48  38 SE20      29.88F
HOLYOKE        FAIR      79  54  41 SE20G25   29.89F
FORT MORGAN    PTSUNNY   75  51  42 SE18G26   29.89F
$$

COZ086-089-092>099-242100-
...SOUTHEAST COLORADO...

CITY           SKY/WX    TMP DP  RH WIND       PRES   REMARKS
PUEBLO         FAIR      77  43  29 VRB3      29.86F
LA JUNTA       FAIR      80  40  23 W5        29.85F
LAMAR          FAIR      84  53  34 VRB7      29.82F
SPRINGFIELD      N/A     80  45  28 VRB3      29.87F
$$



USA.gov is the U.S. government's official web portal to all federal, state and local government web resources and services.